遥感四十三号01组-G (YAOGAN-43 O1G)

导读

YAOGAN-43 O1G(遥感四十三号01组卫星)是中国于北京时间2024年8月16日15时35分,在西昌卫星发射中心通过长征四号乙运载火箭发射的低轨试验卫星。本次发射任务取得圆满成功,卫星顺利进入预定轨道,是长征系列运载火箭的第531次飞行,该卫星主要用于开展低轨星座系统新技术试验。

基本信息
目录编号:
60464
目录名称:
YAOGAN-43 O1G
国际标识:
2024-148G
轨道中心:
EARTH
卫星名称:
遥感四十三号01组-G (YAOGAN-43 O1G)
卫星全名:
遥感四十三号01组-G (YAOGAN-43 O1G)
卫星状态:
在轨 (已飞行665 天)
发射日期:
2024-08-16 UTC
国别 :
中国 (CN)
星等 :
--
轨道信息
数据来源 国际轨道数据 AOE轨道数据
星历时间 2026-06-12T15:25:55+0800
12小时前
查看轨道信息
2026-06-09T11:00:00+0800
3天前
查看轨道信息
半长轴 6854.688km 6854.78km
偏心率 0.0005221 0.0005188
轨道倾角 35.000° 35.004°
近地点辐角 102.155° 68.584°
升交点赤经 179.830° 200.065°
平近点角 257.975° 4.446°
近地点 472.972km 473.086km
远地点 480.13km 480.2km
周期 94.133分钟 94.135分钟
每日圈数 15.29753 15.29722
详细信息
运营商:
中国空间技术研究院
运营商所在国:
中国
制造商(研发单位):
中国空间技术研究院
制造商所在国:
中国
使用方式:
暂无
卫星简介
遥感四十三号卫星组分别由航天科技集团五院和八院等抓总研制,主要用于开展低轨星座系统新技术试验。
2D轨道图
3D轨道图
轨道高度分析图
轨道倾角分析图
轨道综合分析图
查看轨道综合分析图